Time,TemperatureF,DewpointF,PressureIn,WindDirection,WindDirectionDegrees,WindSpeedMPH,WindSpeedGustMPH,Humidity,HourlyPrecipIn,Conditions,Clouds,dailyrainin,SoftwareType,DateUTC
2013-02-03 00:03:00,37.4,31.0,30.30,NNW,331,5.0,-999.0,77,-99.99,,,0.00,weatherlink.com 1.10,2013-02-03 00:03:00,
2013-02-03 00:18:00,37.6,31.0,30.30,NW,319,6.0,-999.0,77,-99.99,,,0.00,weatherlink.com 1.10,2013-02-03 00:18:00,
2013-02-03 00:33:00,38.3,32.0,30.31,NW,311,7.0,-999.0,77,-99.99,,,0.00,weatherlink.com 1.10,2013-02-03 00:33:00,
2013-02-03 00:48:00,38.6,32.0,30.31,NW,309,4.0,-999.0,76,-99.99,,,0.00,weatherlink.com 1.10,2013-02-03 00:48:00,
2013-02-03 01:03:00,39.2,32.0,30.30,NW,309,3.0,-999.0,76,-99.99,,,0.00,weatherlink.com 1.10,2013-02-03 01:03:00,
2013-02-03 01:18:00,39.5,33.0,30.29,NW,309,4.0,-999.0,76,-99.99,,,0.00,weatherlink.com 1.10,2013-02-03 01:18:00,
2013-02-03 01:33:00,39.7,33.0,30.28,NW,309,5.0,-999.0,77,-99.99,,,0.00,weatherlink.com 1.10,2013-02-03 01:33:00,
2013-02-03 01:48:00,39.9,33.0,30.28,NW,309,2.0,-999.0,76,-99.99,,,0.00,weatherlink.com 1.10,2013-02-03 01:48:00,
2013-02-03 02:03:00,39.8,33.0,30.29,NW,309,2.0,-999.0,77,-99.99,,,0.00,weatherlink.com 1.10,2013-02-03 02:03:00,
2013-02-03 02:18:00,39.8,33.0,30.29,NW,309,0.0,-999.0,78,-99.99,,,0.00,weatherlink.com 1.10,2013-02-03 02:18:00,
2013-02-03 02:33:00,39.7,33.0,30.28,NW,309,4.0,-999.0,78,-99.99,,,0.00,weatherlink.com 1.10,2013-02-03 02:33:00,
2013-02-03 02:48:00,40.1,34.0,30.28,NW,309,2.0,-999.0,79,-99.99,,,0.00,weatherlink.com 1.10,2013-02-03 02:48:00,
2013-02-03 03:03:00,40.8,35.0,30.28,NW,309,2.0,-999.0,79,-99.99,,,0.00,weatherlink.com 1.10,2013-02-03 03:03:00,
2013-02-03 03:18:00,41.3,35.0,30.27,NW,309,4.0,-999.0,79,-99.99,,,0.00,weatherlink.com 1.10,2013-02-03 03:18:00,
2013-02-03 03:33:00,42.0,36.0,30.27,NW,309,2.0,-999.0,79,-99.99,,,0.00,weatherlink.com 1.10,2013-02-03 03:33:00,
2013-02-03 03:48:00,42.7,37.0,30.27,NW,309,2.0,-999.0,79,-99.99,,,0.00,weatherlink.com 1.10,2013-02-03 03:48:00,
2013-02-03 04:03:00,43.3,37.0,30.27,NW,309,0.0,-999.0,79,-99.99,,,0.00,weatherlink.com 1.10,2013-02-03 04:03:00,
2013-02-03 04:18:00,43.5,37.0,30.26,NW,309,0.0,-999.0,79,-99.99,,,0.00,weatherlink.com 1.10,2013-02-03 04:18:00,
2013-02-03 04:33:00,43.7,38.0,30.26,NW,309,0.0,-999.0,79,-99.99,,,0.00,weatherlink.com 1.10,2013-02-03 04:33:00,
2013-02-03 04:48:00,44.0,38.0,30.26,NW,309,0.0,-999.0,79,-99.99,,,0.00,weatherlink.com 1.10,2013-02-03 04:48:00,
2013-02-03 05:19:00,44.3,39.0,30.25,NW,309,3.0,-999.0,80,-99.99,,,0.01,weatherlink.com 1.10,2013-02-03 05:19:00,
2013-02-03 05:34:00,44.3,39.0,30.24,NW,309,3.0,-999.0,80,-99.99,,,0.01,weatherlink.com 1.10,2013-02-03 05:34:00,
2013-02-03 05:48:00,44.2,38.0,30.23,NW,309,3.0,-999.0,80,-99.99,,,0.02,weatherlink.com 1.10,2013-02-03 05:48:00,
2013-02-03 06:03:00,44.1,39.0,30.23,NW,309,2.0,-999.0,81,-99.99,,,0.03,weatherlink.com 1.10,2013-02-03 06:03:00,
2013-02-03 06:19:00,44.1,39.0,30.22,NW,308,5.0,-999.0,82,-99.99,,,0.03,weatherlink.com 1.10,2013-02-03 06:19:00,
2013-02-03 06:33:00,44.5,40.0,30.21,WSW,257,5.0,-999.0,83,-99.99,,,0.04,weatherlink.com 1.10,2013-02-03 06:33:00,
2013-02-03 06:48:00,44.7,40.0,30.21,WSW,245,6.0,-999.0,84,-99.99,,,0.04,weatherlink.com 1.10,2013-02-03 06:48:00,
2013-02-03 07:03:00,44.9,41.0,30.20,SW,233,15.0,-999.0,85,-99.99,,,0.05,weatherlink.com 1.10,2013-02-03 07:03:00,
2013-02-03 07:18:00,45.1,41.0,30.19,WSW,250,11.0,-999.0,86,-99.99,,,0.05,weatherlink.com 1.10,2013-02-03 07:18:00,
2013-02-03 07:33:00,45.5,42.0,30.19,WSW,244,13.0,-999.0,86,-99.99,,,0.06,weatherlink.com 1.10,2013-02-03 07:33:00,
2013-02-03 07:48:00,45.8,42.0,30.19,West,265,11.0,-999.0,86,-99.99,,,0.06,weatherlink.com 1.10,2013-02-03 07:48:00,
2013-02-03 08:03:00,46.0,42.0,30.19,West,260,10.0,-999.0,86,-99.99,,,0.06,weatherlink.com 1.10,2013-02-03 08:03:00,
2013-02-03 09:24:00,48.1,44.0,30.17,West,281,7.0,-999.0,87,-99.99,,,0.00,weatherlink.com 1.10,2013-02-03 09:24:00,
2013-02-03 09:39:00,48.6,45.0,30.17,West,268,5.0,-999.0,87,-99.99,,,0.01,weatherlink.com 1.10,2013-02-03 09:39:00,
2013-02-03 09:54:00,49.0,45.0,30.17,West,277,6.0,-999.0,87,-99.99,,,0.01,weatherlink.com 1.10,2013-02-03 09:54:00,
2013-02-03 10:08:00,49.2,46.0,30.16,WNW,285,7.0,-999.0,87,-99.99,,,0.01,weatherlink.com 1.10,2013-02-03 10:08:00,
2013-02-03 10:23:00,49.4,46.0,30.16,West,261,7.0,-999.0,87,-99.99,,,0.01,weatherlink.com 1.10,2013-02-03 10:23:00,
2013-02-03 10:38:00,49.6,46.0,30.16,West,263,15.0,-999.0,87,-99.99,,,0.01,weatherlink.com 1.10,2013-02-03 10:38:00,
2013-02-03 10:53:00,49.7,46.0,30.16,West,275,12.0,-999.0,87,-99.99,,,0.01,weatherlink.com 1.10,2013-02-03 10:53:00,
2013-02-03 11:09:00,49.9,46.0,30.16,WNW,292,13.0,-999.0,87,-99.99,,,0.01,weatherlink.com 1.10,2013-02-03 11:09:00,
2013-02-03 11:24:00,49.8,46.0,30.15,WNW,290,9.0,-999.0,87,-99.99,,,0.01,weatherlink.com 1.10,2013-02-03 11:24:00,
2013-02-03 11:38:00,49.7,46.0,30.14,West,281,14.0,-999.0,87,-99.99,,,0.01,weatherlink.com 1.10,2013-02-03 11:38:00,
2013-02-03 11:54:00,49.8,46.0,30.15,WNW,286,12.0,-999.0,87,-99.99,,,0.01,weatherlink.com 1.10,2013-02-03 11:54:00,
2013-02-03 12:09:00,49.9,46.0,30.14,WNW,300,6.0,-999.0,87,-99.99,,,0.01,weatherlink.com 1.10,2013-02-03 12:09:00,
2013-02-03 12:24:00,50.0,46.0,30.15,NW,310,11.0,-999.0,86,-99.99,,,0.01,weatherlink.com 1.10,2013-02-03 12:24:00,
2013-02-03 12:38:00,50.0,46.0,30.14,WNW,303,6.0,-999.0,86,-99.99,,,0.01,weatherlink.com 1.10,2013-02-03 12:38:00,
2013-02-03 12:53:00,50.1,46.0,30.14,WNW,296,4.0,-999.0,86,-99.99,,,0.01,weatherlink.com 1.10,2013-02-03 12:53:00,
2013-02-03 13:08:00,50.0,46.0,30.13,WNW,295,14.0,-999.0,86,-99.99,,,0.01,weatherlink.com 1.10,2013-02-03 13:08:00,
2013-02-03 13:23:00,49.8,46.0,30.12,NW,309,20.0,-999.0,86,-99.99,,,0.01,weatherlink.com 1.10,2013-02-03 13:23:00,
2013-02-03 13:38:00,50.3,46.0,30.12,WNW,297,16.0,-999.0,86,-99.99,,,0.01,weatherlink.com 1.10,2013-02-03 13:38:00,
2013-02-03 13:54:00,50.4,46.0,30.12,WNW,298,19.0,-999.0,85,-99.99,,,0.01,weatherlink.com 1.10,2013-02-03 13:54:00,
2013-02-03 14:09:00,50.3,46.0,30.11,NW,315,11.0,-999.0,84,-99.99,,,0.01,weatherlink.com 1.10,2013-02-03 14:09:00,
2013-02-03 14:24:00,50.2,46.0,30.10,WNW,294,12.0,-999.0,85,-99.99,,,0.01,weatherlink.com 1.10,2013-02-03 14:24:00,
2013-02-03 14:39:00,50.0,46.0,30.10,NW,313,16.0,-999.0,85,-99.99,,,0.01,weatherlink.com 1.10,2013-02-03 14:39:00,
2013-02-03 14:53:00,49.7,45.0,30.10,NW,307,11.0,-999.0,85,-99.99,,,0.01,weatherlink.com 1.10,2013-02-03 14:53:00,
2013-02-03 15:08:00,49.7,45.0,30.10,NW,318,14.0,-999.0,85,-99.99,,,0.01,weatherlink.com 1.10,2013-02-03 15:08:00,
2013-02-03 15:23:00,49.7,45.0,30.10,NW,305,8.0,-999.0,85,-99.99,,,0.01,weatherlink.com 1.10,2013-02-03 15:23:00,
2013-02-03 15:39:00,49.7,46.0,30.10,NW,310,9.0,-999.0,86,-99.99,,,0.01,weatherlink.com 1.10,2013-02-03 15:39:00,
2013-02-03 15:53:00,49.5,46.0,30.10,NW,311,7.0,-999.0,86,-99.99,,,0.01,weatherlink.com 1.10,2013-02-03 15:53:00,
2013-02-03 16:09:00,49.5,46.0,30.09,NW,313,13.0,-999.0,86,-99.99,,,0.01,weatherlink.com 1.10,2013-02-03 16:09:00,
2013-02-03 16:23:00,49.3,45.0,30.10,WNW,302,18.0,-999.0,86,-99.99,,,0.01,weatherlink.com 1.10,2013-02-03 16:23:00,
2013-02-03 16:38:00,49.3,45.0,30.10,NW,322,11.0,-999.0,86,-99.99,,,0.01,weatherlink.com 1.10,2013-02-03 16:38:00,
2013-02-03 16:54:00,49.4,45.0,30.09,WNW,296,5.0,-999.0,86,-99.99,,,0.01,weatherlink.com 1.10,2013-02-03 16:54:00,
2013-02-03 17:08:00,49.5,46.0,30.09,WNW,294,11.0,-999.0,86,-99.99,,,0.01,weatherlink.com 1.10,2013-02-03 17:08:00,
2013-02-03 17:23:00,49.3,45.0,30.10,NW,311,14.0,-999.0,86,-99.99,,,0.01,weatherlink.com 1.10,2013-02-03 17:23:00,
2013-02-03 17:38:00,49.3,45.0,30.10,NW,315,10.0,-999.0,86,-99.99,,,0.01,weatherlink.com 1.10,2013-02-03 17:38:00,
2013-02-03 17:54:00,49.3,45.0,30.10,NW,314,11.0,-999.0,86,-99.99,,,0.01,weatherlink.com 1.10,2013-02-03 17:54:00,
2013-02-03 18:09:00,49.4,45.0,30.10,WNW,295,14.0,-999.0,86,-99.99,,,0.02,weatherlink.com 1.10,2013-02-03 18:09:00,
2013-02-03 18:24:00,49.7,45.0,30.10,NW,307,13.0,-999.0,85,-99.99,,,0.02,weatherlink.com 1.10,2013-02-03 18:24:00,
2013-02-03 18:39:00,49.9,46.0,30.09,NW,325,15.0,-999.0,85,-99.99,,,0.02,weatherlink.com 1.10,2013-02-03 18:39:00,
2013-02-03 18:54:00,49.9,46.0,30.10,WNW,289,15.0,-999.0,85,-99.99,,,0.02,weatherlink.com 1.10,2013-02-03 18:54:00,
2013-02-03 19:08:00,49.9,45.0,30.10,WNW,303,10.0,-999.0,84,-99.99,,,0.02,weatherlink.com 1.10,2013-02-03 19:08:00,
2013-02-03 19:24:00,50.1,46.0,30.09,WNW,302,14.0,-999.0,84,-99.99,,,0.02,weatherlink.com 1.10,2013-02-03 19:24:00,
2013-02-03 19:38:00,50.1,46.0,30.09,NW,306,11.0,-999.0,84,-99.99,,,0.02,weatherlink.com 1.10,2013-02-03 19:38:00,
2013-02-03 19:53:00,50.1,46.0,30.09,NW,319,13.0,-999.0,84,-99.99,,,0.02,weatherlink.com 1.10,2013-02-03 19:53:00,
2013-02-03 20:09:00,50.1,45.0,30.09,NW,309,11.0,-999.0,83,-99.99,,,0.00,weatherlink.com 1.10,2013-02-03 20:09:00,
2013-02-03 20:24:00,50.0,45.0,30.09,NW,311,14.0,-999.0,83,-99.99,,,0.00,weatherlink.com 1.10,2013-02-03 20:24:00,
2013-02-03 20:38:00,50.1,45.0,30.09,WNW,302,16.0,-999.0,83,-99.99,,,0.00,weatherlink.com 1.10,2013-02-03 20:38:00,
2013-02-03 20:53:00,50.0,45.0,30.09,NW,308,16.0,-999.0,83,-99.99,,,0.00,weatherlink.com 1.10,2013-02-03 20:53:00,
2013-02-03 21:08:00,50.1,46.0,30.09,NW,306,12.0,-999.0,84,-99.99,,,0.00,weatherlink.com 1.10,2013-02-03 21:08:00,
2013-02-03 21:23:00,50.3,46.0,30.09,NW,315,15.0,-999.0,84,-99.99,,,0.00,weatherlink.com 1.10,2013-02-03 21:23:00,
2013-02-03 21:38:00,50.3,46.0,30.09,NW,312,10.0,-999.0,84,-99.99,,,0.00,weatherlink.com 1.10,2013-02-03 21:38:00,
2013-02-03 21:53:00,50.4,46.0,30.10,WNW,287,19.0,-999.0,84,-99.99,,,0.00,weatherlink.com 1.10,2013-02-03 21:53:00,
2013-02-03 22:08:00,50.5,46.0,30.10,WNW,295,16.0,-999.0,84,-99.99,,,0.00,weatherlink.com 1.10,2013-02-03 22:08:00,
2013-02-03 22:23:00,50.6,46.0,30.10,WNW,301,17.0,-999.0,83,-99.99,,,0.00,weatherlink.com 1.10,2013-02-03 22:23:00,
2013-02-03 22:38:00,50.8,46.0,30.09,WNW,301,17.0,-999.0,83,-99.99,,,0.00,weatherlink.com 1.10,2013-02-03 22:38:00,
2013-02-03 22:53:00,50.7,46.0,30.09,WNW,292,15.0,-999.0,83,-99.99,,,0.00,weatherlink.com 1.10,2013-02-03 22:53:00,
2013-02-03 23:08:00,50.7,46.0,30.09,West,280,11.0,-999.0,84,-99.99,,,0.00,weatherlink.com 1.10,2013-02-03 23:08:00,
2013-02-03 23:23:00,50.8,46.0,30.09,WNW,294,21.0,-999.0,84,-99.99,,,0.00,weatherlink.com 1.10,2013-02-03 23:23:00,
2013-02-03 23:38:00,50.8,46.0,30.09,WNW,299,10.0,-999.0,83,-99.99,,,0.00,weatherlink.com 1.10,2013-02-03 23:38:00,
2013-02-03 23:53:00,50.8,46.0,30.09,WNW,283,14.0,-999.0,84,-99.99,,,0.00,weatherlink.com 1.10,2013-02-03 23:53:00,